Tracking 31027 objects as of 19-Jul-2025
HD Live streaming from Space Station
objects crossing your sky now

SL-14 DEB

Track SL-14 DEB now!
10-day predictions


NORAD ID: 45330
Int'l Code: 1991-056BU
Perigee: 1,067.2 km
Apogee: 1,176.0 km
Inclination: 82.6 °
Period: 107.6 minutes
Semi major axis: 7492 km
RCS: Unknown
Launch date: August 15, 1991
Source: Commonwealth of Independent States (former USSR) (CIS)
Launch site: PLESETSK MISSILE AND SPACE COMPLEX (PKMTR)

Note: This is SATELLITE DEBRIS
Your satellite tracking list
STARLINK-4010
Track 1 satellite(s)




NASA's NSSDC Master Catalog

Two Line Element Set (TLE):
1 45330U 91056BU  25198.38212295  .00000963  00000-0  17576-2 0  9999
2 45330  82.5645 331.4481 0072607  13.0263 347.2724 13.38602934264255
Source of the keplerian elements: AFSPC